Weather Roundup
Issued by NWS

Home | Current Version | Previous Version | Graphics & Text | Print | Product List | Glossary Off
Versions: 1 2 3 4 5 6 7 8 9 10 11 12 13 14 15 16 17 18 19 20 21 22 23 24 25 26 27 28 29 30 31 32 33 34 35 36 37 38 39 40 41 42 43 44 45 46 47 48 49 50

000
NZUS93 KARX 161459
HRRWXR

CURRENT HOURLY OBSERVATIONS ACROSS
MUCH OF THE UPPER MISSISSIPPI VALLEY
NATIONAL WEATHER SERVICE LA CROSSE WI
900 AM CST SAT DEC 16 2017


...SOUTHEAST MINNESOTA...


CITY           SKY/WX    TMP DP  RH WIND       PRES   REMARKS
ROCHESTER      CLOUDY    27  23  85 NE6       29.75R WCI  20
ROCHESTER/MAYO FAIR      29  26  88 CALM      29.77R
WINONA         CLOUDY    30  30 100 CALM      29.82R
AUSTIN         CLOUDY    27  23  86 CALM      29.76R
ALBERT LEA     SUNNY     28  21  74 CALM      29.75R
DODGE CENTER   CLOUDY    27  21  80 CALM      29.75R
PRESTON        CLOUDY    28  23  82 CALM      29.77R
OWATONNA       CLOUDY    27  25  93 NE3       29.75R
FARIBAULT      CLEAR     27  25  93 CALM      29.78R
$$

...ELSEWHERE IN MINNESOTA...


CITY           SKY/WX    TMP DP  RH WIND       PRES   REMARKS
MINNEAPOLIS    CLOUDY    25  24  96 E6        29.82R WCI  18
INTNL FALLS    CLOUDY     0  -5  79 E8        29.92R HAZE    WCI -14
DULUTH         CLOUDY    17  12  80 E14       29.86R WCI   3
RED WING       CLOUDY    27  21  80 E6        29.80R WCI  20
REDWOOD FALLS  CLOUDY    28  27  96 NE3       29.78R FOG
MANKATO        CLEAR     27  25  92 N9        29.77R WCI  18
WORTHINGTON    CLOUDY    30  26  85 NW9       29.78R WCI  22
FAIRMONT       CLOUDY    33  27  78 NW8       29.77R WCI  26
$$

...SOUTHWEST WISCONSIN...


CITY           SKY/WX    TMP DP  RH WIND       PRES   REMARKS
LA CROSSE      SUNNY     31  26  82 E5        29.82R WCI  26
PRAIRIE DU CHI CLOUDY    31  22  71 S3        29.81R
BOSCOBEL       CLOUDY    32  26  78 CALM      29.83R
LONE ROCK      NOT AVBL
PLATTEVILLE    NOT AVBL
FORT MC COY    CLOUDY    24  22  93 E8        29.84R WCI  14
MAUSTON-NEW LI CLOUDY    22  19  87 E7        29.85R FOG     WCI  13
VIROQUA        FAIR      29  27  91 CALM      29.78R
WIS DELLS      CLOUDY    22  20  93 NE5       29.84R WCI  16
$$

...ELSEWHERE IN WISCONSIN...


CITY           SKY/WX    TMP DP  RH WIND       PRES   REMARKS
MILWAUKEE      CLOUDY    35  30  82 CALM      29.86S
MADISON        CLOUDY    33  25  72 CALM      29.85R
GREEN BAY      CLOUDY    21  12  68 NE10      29.94R WCI  10
EAU CLAIRE     NOT AVBL
BLACK RVR FLS  CLOUDY    22  20  92 E7        29.84R WCI  14
MEDFORD        CLOUDY    14  10  81 E12       29.84R WCI   1
WAUSAU         CLOUDY    15   8  73 E9        29.88R WCI   3
WIS RAPIDS     CLOUDY    18  12  77 E12       29.90R WCI   5
MARSHFIELD     CLOUDY    16  12  84 E14       29.85R WCI   2
RICE LAKE      CLOUDY    20  16  82 CALM      29.85R
$$

...NORTHEAST IOWA...


CITY           SKY/WX    TMP DP  RH WIND       PRES   REMARKS
WATERLOO       CLOUDY    33  24  69 SW6       29.78R WCI  28
DUBUQUE        CLOUDY    31  24  75 SW8       29.80R WCI  23
DECORAH        CLOUDY    28  23  80 SE5       29.76R WCI  23
MASON CITY     CLOUDY    32  24  72 W6        29.77R WCI  26
CHARLES CITY   SUNNY     28  27  93 S7        29.77R WCI  21
OELWEIN        CLOUDY    30  27  86 S5        29.78R WCI  25
$$

...ELSEWHERE IN IOWA...


CITY           SKY/WX    TMP DP  RH WIND       PRES   REMARKS
DES MOINES     MOSUNNY   37  26  64 SW9       29.79R WCI  30
IOWA CITY      SUNNY     32  26  78 S3        29.83R
FORT DODGE     CLOUDY    32  24  72 SW5       29.77R WCI  27
MARSHALLTOWN   CLOUDY    33  25  72 W6        29.78R WCI  28
CEDAR RAPIDS   SUNNY     33  25  72 S6        29.78S WCI  28
$$

...NORTHERN ILLINOIS...


CITY           SKY/WX    TMP DP  RH WIND       PRES   REMARKS
CHICAGO-OHARE  MOSUNNY   36  24  62 SW6       29.87R WCI  31
CHICAGO-MIDWAY MOSUNNY   36  25  64 SW10      29.88R WCI  28
MOLINE         SUNNY     38  26  62 SW7       29.84R WCI  33
ROCKFORD       MOSUNNY   33  25  72 S6        29.87R WCI  28
PEORIA         SUNNY     35  27  72 S9        29.90R WCI  28
$$

NOTE: "FAIR" INDICATES FEW OR NO CLOUDS BELOW 12,000 FEET WITH NO
SIGNIFICANT WEATHER AND/OR OBSTRUCTIONS TO VISIBILITY. WIND
SPEEDS ARE IN MILES-PER-HOUR.




USA.gov is the U.S. government's official web portal to all federal, state and local government web resources and services.